FW8496 Weather Reports


Display with metric or nautical units.
time (UTC)temp
F
wind
direction
speed
MPH
gust
MPH
rain 1hr
in
rain 24hr
in
rain mn
in
humidity
%
barometer
mb
20260508135543 56 5 4.0 11.0 0.00 0.00 0.00 25 1018.8
20260508135044 56 321 4.0 11.0 0.00 0.00 0.00 26 1018.7
20260508134601 55 336 6.0 11.0 0.00 0.00 0.00 26 1018.7
20260508134042 55 342 5.0 11.0 0.00 0.00 0.00 27 1018.7
20260508133542 54 338 4.0 9.0 0.00 0.00 0.00 28 1018.6
20260508133109 54 24 4.0 9.0 0.00 0.00 0.00 29 1018.6
20260508132542 53 352 3.0 9.0 0.00 0.00 0.00 30 1018.6
20260508132042 53 350 4.0 7.0 0.00 0.00 0.00 30 1018.5
20260508131550 52 351 3.0 5.0 0.00 0.00 0.00 30 1018.4
20260508131042 51 28 2.0 5.0 0.00 0.00 0.00 30 1018.3
20260508130543 51 355 3.0 6.0 0.00 0.00 0.00 31 1018.2
20260508130049 51 360 3.0 7.0 0.00 0.00 0.00 31 1018.2
20260508125543 50 5 3.0 8.0 0.00 0.00 0.00 31 1018.2
20260508125042 50 27 5.0 9.0 0.00 0.00 0.00 32 1018.1
20260508124545 49 30 6.0 9.0 0.00 0.00 0.00 32 1018.0
20260508124042 48 30 4.0 7.0 0.00 0.00 0.00 33 1018.0
20260508123542 47 49 3.0 9.0 0.00 0.00 0.00 33 1018.0
20260508123101 47 50 5.0 9.0 0.00 0.00 0.00 33 1017.9
20260508122542 47 63 4.0 9.0 0.00 0.00 0.00 33 1017.9
20260508122043 47 42 4.0 9.0 0.00 0.00 0.00 33 1017.8
20260508121558 46 51 3.0 10.0 0.00 0.00 0.00 32 1017.8
20260508121044 46 55 6.0 11.0 0.00 0.00 0.00 31 1017.8
20260508120543 46 55 6.0 11.0 0.00 0.00 0.00 30 1017.7
20260508120051 45 43 6.0 10.0 0.00 0.00 0.00 29 1017.7
20260508115543 45 53 6.0 10.0 0.00 0.00 0.00 29 1017.7
20260508115042 46 44 6.0 10.0 0.00 0.00 0.00 28 1017.6
20260508114559 46 67 6.0 10.0 0.00 0.00 0.00 27 1017.6
20260508114043 46 74 4.0 10.0 0.00 0.00 0.00 27 1017.6
20260508113543 46 28 6.0 10.0 0.00 0.00 0.00 27 1017.7
20260508113056 47 30 5.0 9.0 0.00 0.00 0.00 27 1017.7
20260508112543 48 360 4.0 8.0 0.00 0.00 0.00 28 1017.6
20260508112043 48 22 4.0 9.0 0.00 0.00 0.00 28 1017.6
20260508111556 49 26 5.0 9.0 0.00 0.00 0.00 29 1017.6
20260508111044 49 35 5.0 8.0 0.00 0.00 0.00 29 1017.5
20260508110543 49 25 4.0 7.0 0.00 0.00 0.00 29 1017.4
20260508110051 49 19 3.0 4.0 0.00 0.00 0.00 29 1017.3
20260508105543 50 13 3.0 4.0 0.00 0.00 0.00 28 1017.4
20260508105044 50 13 2.0 3.0 0.00 0.00 0.00 28 1017.4
20260508104552 50 13 2.0 3.0 0.00 0.00 0.00 28 1017.2
20260508104042 51 13 1.0 3.0 0.00 0.00 0.00 27 1017.2
20260508103543 51 13 2.0 4.0 0.00 0.00 0.00 26 1017.2
20260508103053 51 13 2.0 5.0 0.00 0.00 0.00 26 1017.1
20260508102543 51 14 3.0 5.0 0.00 0.00 0.00 26 1017.0
20260508102044 51 30 4.0 5.0 0.00 0.00 0.00 27 1017.0
20260508101549 51 21 3.0 6.0 0.00 0.00 0.00 26 1017.0
20260508101043 50 31 3.0 6.0 0.00 0.00 0.00 26 1016.9
20260508100543 49 34 4.0 6.0 0.00 0.00 0.00 27 1016.8
20260508100048 48 40 4.0 6.0 0.00 0.00 0.00 27 1016.9
20260508095543 47 25 3.0 5.0 0.00 0.00 0.00 28 1016.9
20260508095044 46 40 2.0 4.0 0.00 0.00 0.00 28 1016.9
20260508094602 45 48 3.0 5.0 0.00 0.00 0.00 28 1016.9
20260508094042 45 80 2.0 5.0 0.00 0.00 0.00 27 1017.0
20260508093542 45 73 2.0 3.0 0.00 0.00 0.00 26 1016.8
20260508093053 45 73 2.0 4.0 0.00 0.00 0.00 27 1017.0
20260508092542 45 73 2.0 5.0 0.00 0.00 0.00 26 1017.0
20260508092042 45 73 3.0 5.0 0.00 0.00 0.00 26 1017.1
20260508091611 45 76 4.0 5.0 0.00 0.00 0.00 26 1017.1
20260508091042 44 79 3.0 7.0 0.00 0.00 0.00 27 1017.1
20260508090547 45 80 4.0 7.0 0.00 0.00 0.00 27 1017.1
20260508090059 44 85 4.0 7.0 0.00 0.00 0.00 27 1017.0
20260508085543 44 82 4.0 7.0 0.00 0.00 0.00 27 1017.1
20260508085045 44 75 3.0 5.0 0.00 0.00 0.00 27 1017.2
20260508084552 44 78 3.0 6.0 0.00 0.00 0.00 27 1017.2
20260508084043 44 86 2.0 7.0 0.00 0.00 0.00 27 1017.2
20260508083543 44 85 4.0 7.0 0.00 0.00 0.00 26 1017.2
20260508083049 44 81 2.0 5.0 0.00 0.00 0.00 26 1017.3
20260508082542 44 87 3.0 5.0 0.00 0.00 0.00 26 1017.3
20260508082045 44 92 3.0 6.0 0.00 0.00 0.00 26 1017.3
20260508081552 44 86 1.0 8.0 0.00 0.00 0.00 26 1017.4
20260508081042 44 84 3.0 8.0 0.00 0.00 0.00 26 1017.3
20260508080542 44 87 5.0 8.0 0.00 0.00 0.00 26 1017.4
20260508080051 45 83 3.0 6.0 0.00 0.00 0.00 26 1017.4
20260508075543 45 81 3.0 6.0 0.00 0.00 0.00 26 1017.4
20260508075042 45 90 3.0 6.0 0.00 0.00 0.00 26 1017.4
20260508074549 45 90 3.0 4.0 0.00 0.00 0.00 26 1017.5
20260508074042 45 88 2.0 6.0 0.00 0.00 0.00 25 1017.5
20260508073543 45 88 3.0 6.0 0.00 0.00 0.00 25 1017.6
20260508073052 45 86 3.0 5.0 0.00 0.00 0.00 25 1017.6
20260508072542 45 78 3.0 5.0 0.00 0.00 0.00 25 1017.7
20260508072042 45 84 2.0 3.0 0.00 0.00 0.00 25 1017.7
20260508071553 45 87 1.0 4.0 0.00 0.00 0.00 25 1017.7
20260508071043 45 87 1.0 6.0 0.00 0.00 0.00 25 1017.6
20260508070542 45 87 2.0 6.0 0.00 0.00 0.00 26 1017.6
20260508070046 45 94 3.0 6.0 0.00 0.00 0.00 25 1017.6
20260508065542 45 92 1.0 6.0 0.00 0.00 0.00 25 1017.6
20260508065042 46 93 3.0 7.0 0.00 0.00 0.00 25 1017.5
20260508064552 46 80 3.0 7.0 0.00 0.00 0.00 25 1017.6
20260508064043 46 88 2.0 7.0 0.00 0.00 0.00 24 1017.5
20260508063543 46 88 3.0 7.0 0.00 0.00 0.00 24 1017.5
20260508063125 47 91 1.0 3.0 0.00 0.00 0.00 24 1017.5
20260508062542 47 280 1.0 3.0 0.00 0.00 0.00 24 1017.5
20260508062046 48 280 1.0 3.0 0.00 0.00 0.00 23 1017.4
20260508061554 48 280 1.0 3.0 0.00 0.00 0.00 23 1017.4
20260508061043 48 280 1.0 2.0 0.00 0.00 0.00 23 1017.5
20260508060542 49 280 1.0 2.0 0.00 0.00 0.00 22 1017.5
20260508060045 49 280 0.0 2.0 0.00 0.00 0.00 22 1017.5
20260508055543 49 0 0.0 2.0 0.00 0.00 0.00 21 1017.5
20260508055043 49 280 1.0 2.0 0.00 0.00 0.00 22 1017.6
20260508054549 49 280 1.0 3.0 0.00 0.00 0.00 22 1017.6
20260508054043 50 0 0.0 3.0 0.00 0.00 0.00 22 1017.6
20260508053542 50 280 1.0 3.0 0.00 0.00 0.00 20 1017.6
20260508053054 50 0 0.0 2.0 0.00 0.00 0.00 20 1017.6
20260508052542 50 0 0.0 4.0 0.00 0.00 0.00 21 1017.7
20260508052043 50 65 0.0 4.0 0.00 0.00 0.00 22 1017.6
20260508051607 50 0 2.0 4.0 0.00 0.00 0.00 20 1017.7
20260508051043 50 93 2.0 6.0 0.00 0.00 0.00 21 1017.7
20260508050542 50 93 3.0 6.0 0.00 0.00 0.00 21 1017.7
20260508050047 50 88 3.0 6.0 0.00 0.00 0.00 21 1017.7
20260508045542 51 98 2.0 4.0 0.00 0.00 0.00 21 1017.6
20260508045044 51 95 1.0 3.0 0.00 0.00 0.00 21 1017.7
20260508044547 51 95 1.0 3.0 0.00 0.00 0.00 21 1017.7
20260508044041 52 95 1.0 4.0 0.00 0.00 0.00 21 1017.7
20260508043542 52 95 2.0 6.0 0.00 0.00 0.00 21 1017.7
20260508043048 53 92 3.0 6.0 0.00 0.00 0.00 20 1017.7
20260508042543 54 102 2.0 5.0 0.00 0.00 0.00 20 1017.7
20260508042042 54 131 3.0 5.0 0.00 0.00 0.00 20 1017.7
20260508041551 55 137 2.0 4.0 0.00 0.00 0.00 19 1017.7
20260508041042 55 303 0.0 4.0 0.00 0.00 0.00 18 1017.7
20260508040542 55 303 1.0 5.0 0.00 0.00 0.00 18 1017.6
20260508040051 56 303 2.0 7.0 0.00 0.00 0.00 18 1017.6
20260508035542 56 305 3.0 8.0 0.00 0.00 0.00 18 1017.5
20260508035042 56 294 3.0 8.0 0.00 0.00 0.00 18 1017.5
20260508034554 56 286 2.0 4.0 0.00 0.00 0.00 18 1017.5
20260508034043 57 269 2.0 4.0 0.00 0.00 0.00 18 1017.5
20260508033541 57 254 2.0 4.0 0.00 0.00 0.00 18 1017.3
20260508033054 57 242 1.0 7.0 0.00 0.00 0.00 18 1017.3
20260508032546 57 297 2.0 9.0 0.00 0.00 0.00 18 1017.1
20260508032043 57 296 3.0 9.0 0.00 0.00 0.00 17 1017.0
20260508031548 57 285 3.0 8.0 0.00 0.00 0.00 17 1016.9
20260508031042 58 254 3.0 7.0 0.00 0.00 0.00 16 1016.7
20260508030542 58 257 2.0 7.0 0.00 0.00 0.00 14 1016.7
20260508030057 59 232 2.0 5.0 0.00 0.00 0.00 14 1016.6
20260508025542 59 225 2.0 6.0 0.00 0.00 0.00 14 1016.4
20260508025042 59 231 2.0 6.0 0.00 0.00 0.00 14 1016.4
20260508024550 60 240 3.0 8.0 0.00 0.00 0.00 13 1016.4
20260508024042 60 240 3.0 9.0 0.00 0.00 0.00 13 1016.2
20260508023542 61 233 4.0 10.0 0.00 0.00 0.00 12 1016.2
20260508023052 61 180 5.0 10.0 0.00 0.00 0.00 12 1016.1
20260508022542 61 215 6.0 12.0 0.00 0.00 0.00 12 1016.0
20260508022043 62 211 4.0 12.0 0.00 0.00 0.00 12 1016.0
20260508021554 62 205 6.0 11.0 0.00 0.00 0.00 11 1016.1
20260508021042 63 198 5.0 9.0 0.00 0.00 0.00 11 1016.0
20260508020542 64 184 4.0 12.0 0.00 0.00 0.00 11 1015.9
20260508020100 64 196 4.0 12.0 0.00 0.00 0.00 11 1015.8
20260508015542 65 171 5.0 11.0 0.00 0.00 0.00 11 1015.8
20260508015042 65 205 5.0 12.0 0.00 0.00 0.00 11 1015.9
20260508014547 66 187 7.0 12.0 0.00 0.00 0.00 10 1016.0
20260508014042 66 149 6.0 14.0 0.00 0.00 0.00 10 1015.9
20260508013540 67 183 5.0 14.0 0.00 0.00 0.00 10 1015.9
20260508013046 67 199 4.0 10.0 0.00 0.00 0.00 11 1015.8
20260508012542 68 202 5.0 13.0 0.00 0.00 0.00 11 1015.8
20260508012043 68 170 7.0 14.0 0.00 0.00 0.00 10 1015.8
20260508011550 68 174 6.0 14.0 0.00 0.00 0.00 10 1015.7
20260508011042 69 225 6.0 11.0 0.00 0.00 0.00 10 1015.7
20260508010542 69 225 5.0 12.0 0.00 0.00 0.00 11 1015.8
20260508010100 70 223 7.0 14.0 0.00 0.00 0.00 10 1015.8
20260508005541 70 246 7.0 14.0 0.00 0.00 0.00 10 1015.8
20260508005043 71 238 5.0 13.0 0.00 0.00 0.00 10 1015.8
20260508004547 72 205 4.0 13.0 0.00 0.00 0.00 10 1015.8
20260508004043 72 196 3.0 10.0 0.00 0.00 0.00 10 1015.8
20260508003542 72 245 4.0 12.0 0.00 0.00 0.00 10 1015.9
20260508003047 73 188 6.0 12.0 0.00 0.00 0.00 10 1015.9
20260508002542 73 202 5.0 12.0 0.00 0.00 0.00 10 1015.9
20260508002042 74 194 2.0 10.0 0.00 0.00 0.00 10 1015.9
20260508001551 74 171 4.0 10.0 0.00 0.00 0.00 10 1015.9
20260508001042 74 200 3.0 9.0 0.00 0.00 0.00 10 1016.0
20260508000542 74 219 3.0 11.0 0.00 0.00 0.00 10 1016.0
20260508000048 74 241 2.0 11.0 0.00 0.00 0.00 10 1016.0
20260507235542 74 211 5.0 11.0 0.00 0.00 0.00 10 1016.0
20260507235042 74 134 3.0 10.0 0.00 0.00 0.00 11 1016.0
20260507234548 74 188 4.0 10.0 0.00 0.00 0.00 11 1016.1
20260507234042 74 207 2.0 9.0 0.00 0.00 0.00 11 1016.3
20260507233543 74 228 4.0 11.0 0.00 0.00 0.00 12 1016.2
20260507233051 73 219 0.0 14.0 0.00 0.00 0.00 12 1016.2
20260507232543 73 242 7.0 14.0 0.00 0.00 0.00 12 1016.3
20260507232042 73 254 7.0 14.0 0.00 0.00 0.00 12 1016.2
20260507231551 74 188 8.0 14.0 0.00 0.00 0.00 13 1016.3
20260507231042 74 269 4.0 13.0 0.00 0.00 0.00 14 1016.2
20260507230542 74 234 5.0 13.0 0.00 0.00 0.00 15 1016.4
20260507230108 74 304 7.0 15.0 0.00 0.00 0.00 14 1016.4
20260507225542 74 221 8.0 15.0 0.00 0.00 0.00 14 1016.4
20260507225042 75 311 8.0 15.0 0.00 0.00 0.00 14 1016.4
20260507224549 75 331 7.0 11.0 0.00 0.00 0.00 15 1016.4
20260507224041 75 281 3.0 9.0 0.00 0.00 0.00 16 1016.4
20260507223542 75 248 5.0 9.0 0.00 0.00 0.00 17 1016.4
20260507223138 74 213 3.0 9.0 0.00 0.00 0.00 17 1016.4
20260507222542 74 331 2.0 9.0 0.00 0.00 0.00 18 1016.6
20260507222042 73 309 4.0 12.0 0.00 0.00 0.00 18 1016.7
20260507221550 74 335 5.0 18.0 0.00 0.00 0.00 18 1016.8
20260507221043 73 319 10.0 18.0 0.00 0.00 0.00 18 1016.8
20260507220542 74 304 4.0 14.0 0.00 0.00 0.00 17 1016.8
20260507220049 74 30 5.0 12.0 0.00 0.00 0.00 16 1017.0
20260507215542 74 314 4.0 12.0 0.00 0.00 0.00 16 1017.0
20260507215042 75 360 6.0 12.0 0.00 0.00 0.00 14 1017.1
20260507214554 74 323 4.0 13.0 0.00 0.00 0.00 15 1017.1
20260507214042 74 325 5.0 13.0 0.00 0.00 0.00 15 1017.2
20260507213542 74 309 7.0 12.0 0.00 0.00 0.00 14 1017.3
20260507213100 75 310 1.0 12.0 0.00 0.00 0.00 15 1017.5
20260507212542 74 284 3.0 12.0 0.00 0.00 0.00 14 1017.6
20260507212042 74 309 6.0 12.0 0.00 0.00 0.00 13 1017.6
20260507211552 74 239 4.0 12.0 0.00 0.00 0.00 14 1017.7
20260507211041 74 331 3.0 10.0 0.00 0.00 0.00 13 1017.8
20260507210543 74 296 2.0 11.0 0.00 0.00 0.00 11 1017.8
20260507210050 73 253 5.0 11.0 0.00 0.00 0.00 12 1018.0
20260507205543 73 302 4.0 10.0 0.00 0.00 0.00 12 1018.0
20260507205044 73 313 4.0 9.0 0.00 0.00 0.00 11 1018.1
20260507204548 74 26 2.0 11.0 0.00 0.00 0.00 10 1018.2
20260507204042 73 194 2.0 11.0 0.00 0.00 0.00 10 1018.3
20260507203542 71 317 1.0 8.0 0.00 0.00 0.00 10 1018.3
20260507203051 71 352 2.0 12.0 0.00 0.00 0.00 10 1018.4
20260507202542 71 290 5.0 12.0 0.00 0.00 0.00 10 1018.5
20260507202045 70 271 5.0 13.0 0.00 0.00 0.00 9 1018.5
20260507201554 69 289 7.0 13.0 0.00 0.00 0.00 9 1018.6
20260507201042 69 319 4.0 12.0 0.00 0.00 0.00 10 1018.6
20260507200542 69 311 3.0 15.0 0.00 0.00 0.00 9 1018.7
20260507200054 69 310 8.0 15.0 0.00 0.00 0.00 10 1018.8
20260507195541 68 344 4.0 14.0 0.00 0.00 0.00 9 1018.8
20260507195044 68 309 5.0 14.0 0.00 0.00 0.00 10 1018.8
20260507194549 68 317 5.0 14.0 0.00 0.00 0.00 11 1018.9
20260507194044 67 283 9.0 14.0 0.00 0.00 0.00 10 1018.9
20260507193542 66 311 6.0 15.0 0.00 0.00 0.00 10 1019.1
20260507193052 65 11 7.0 15.0 0.00 0.00 0.00 9 1019.2
20260507192545 66 296 7.0 17.0 0.00 0.00 0.00 12 1019.2
20260507192042 65 311 8.0 17.0 0.00 0.00 0.00 14 1019.1
20260507191546 64 341 9.0 17.0 0.00 0.00 0.00 13 1019.2
20260507191045 64 275 10.0 19.0 0.00 0.00 0.00 13 1019.3
20260507190542 63 316 12.0 19.0 0.00 0.00 0.00 16 1019.3
20260507190053 63 13 8.0 17.0 0.00 0.00 0.00 16 1019.3
20260507185542 62 9 10.0 19.0 0.00 0.00 0.00 16 1019.3
20260507185041 62 293 10.0 19.0 0.00 0.00 0.00 18 1019.4
20260507184549 61 319 7.0 18.0 0.00 0.00 0.00 18 1019.5
20260507184043 61 317 11.0 18.0 0.00 0.00 0.00 16 1019.5
20260507183543 61 329 11.0 18.0 0.00 0.00 0.00 18 1019.6
20260507183048 60 9 8.0 16.0 0.00 0.00 0.00 22 1019.5
20260507182542 60 342 11.0 16.0 0.00 0.00 0.00 20 1019.7
20260507182044 59 352 10.0 17.0 0.00 0.00 0.00 21 1019.7
20260507181550 59 9 11.0 18.0 0.00 0.00 0.00 22 1019.8
20260507181045 59 336 10.0 21.0 0.00 0.00 0.00 21 1020.0
20260507180543 59 346 12.0 21.0 0.00 0.00 0.00 24 1020.0
20260507180050 58 349 9.0 17.0 0.00 0.00 0.00 25 1020.1
20260507175542 58 355 9.0 19.0 0.00 0.00 0.00 25 1020.2
20260507175042 57 300 13.0 19.0 0.00 0.00 0.00 26 1020.2
20260507174555 57 338 10.0 19.0 0.00 0.00 0.00 27 1020.4
20260507174041 57 315 11.0 18.0 0.00 0.00 0.00 29 1020.4
20260507173543 56 332 10.0 19.0 0.00 0.00 0.00 31 1020.4
20260507173054 56 331 10.0 19.0 0.00 0.00 0.00 30 1020.5
20260507172546 55 341 10.0 21.0 0.00 0.00 0.00 30 1020.5
20260507172041 55 350 12.0 21.0 0.00 0.00 0.00 31 1020.6
20260507171600 55 352 13.0 21.0 0.00 0.00 0.00 32 1020.6
20260507171042 54 355 11.0 21.0 0.00 0.00 0.00 33 1020.7
20260507170544 54 321 12.0 22.0 0.00 0.00 0.00 35 1020.6
20260507170050 53 360 13.0 24.0 0.00 0.00 0.00 34 1020.7
20260507165542 52 336 14.0 24.0 0.00 0.00 0.00 36 1020.6
20260507165042 52 340 13.0 21.0 0.00 0.00 0.00 37 1020.7
20260507164551 51 344 11.0 21.0 0.00 0.00 0.00 42 1020.7
20260507164043 50 298 12.0 21.0 0.00 0.00 0.00 44 1020.9
20260507163542 50 355 13.0 21.0 0.00 0.00 0.00 47 1020.9
20260507163047 49 344 11.0 19.0 0.00 0.00 0.00 48 1021.0
20260507162542 49 28 12.0 18.0 0.00 0.00 0.00 50 1021.0
20260507162044 48 355 11.0 18.0 0.00 0.00 0.00 51 1021.0
20260507161556 47 5 12.0 20.0 0.00 0.00 0.00 52 1021.1
20260507161042 46 352 12.0 20.0 0.00 0.00 0.00 53 1021.1
20260507160543 46 10 13.0 20.0 0.00 0.00 0.00 54 1021.1
20260507160052 45 328 13.0 20.0 0.00 0.00 0.00 54 1021.1
20260507155541 45 352 13.0 21.0 0.00 0.00 0.00 55 1021.4
20260507155042 44 360 14.0 21.0 0.00 0.00 0.00 55 1021.4
20260507154552 44 23 13.0 23.0 0.00 0.00 0.00 55 1021.5
20260507154042 44 329 14.0 23.0 0.00 0.00 0.00 56 1021.6
20260507153542 44 38 13.0 23.0 0.00 0.00 0.00 55 1021.6
20260507153107 43 355 12.0 18.0 0.00 0.00 0.00 58 1021.7
20260507152542 43 5 11.0 18.0 0.00 0.00 0.00 59 1021.8
20260507152043 43 352 11.0 17.0 0.00 0.00 0.00 60 1021.8
20260507151553 43 321 10.0 17.0 0.00 0.00 0.00 62 1021.8
20260507151041 42 340 10.0 16.0 0.00 0.00 0.00 63 1021.7
20260507150543 42 331 9.0 18.0 0.00 0.00 0.00 64 1021.7
20260507150053 41 327 11.0 18.0 0.00 0.00 0.00 65 1021.7
20260507145542 41 300 9.0 17.0 0.00 0.00 0.00 65 1021.7
20260507145042 41 313 9.0 14.0 0.00 0.00 0.00 67 1021.7
20260507144555 40 348 8.0 13.0 0.00 0.00 0.00 68 1021.7
20260507144042 40 351 8.0 13.0 0.00 0.00 0.00 69 1021.8
20260507143543 40 327 8.0 13.0 0.00 0.00 0.00 70 1021.9
20260507143053 40 336 8.0 13.0 0.00 0.00 0.00 72 1022.0
20260507142542 40 329 6.0 13.0 0.00 0.00 0.00 72 1022.0
20260507142042 39 303 9.0 13.0 0.00 0.00 0.00 72 1022.0
20260507141548 39 333 4.0 11.0 0.00 0.00 0.00 75 1022.1
20260507141042 39 5 5.0 11.0 0.00 0.00 0.00 76 1022.2
20260507140542 38 328 5.0 11.0 0.00 0.00 0.00 77 1022.3
20260507140049 38 315 4.0 6.0 0.00 0.00 0.00 78 1022.3